Time,TemperatureF,DewpointF,PressureIn,WindDirection,WindDirectionDegrees,WindSpeedMPH,WindSpeedGustMPH,Humidity,HourlyPrecipIn,Conditions,Clouds,dailyrainin,SoftwareType,DateUTC
2013-10-10 00:01:00,47.7,44.9,30.02,North,-999,0.0,0.0,90,0.00,,,-99.99,WeatherLink 5.7,2013-10-10 05:01:00,
2013-10-10 00:16:00,47.1,44.3,30.02,North,-999,0.0,0.0,90,0.00,,,-99.99,WeatherLink 5.7,2013-10-10 05:16:00,
2013-10-10 00:31:00,46.5,43.7,30.02,North,-999,0.0,0.0,90,0.00,,,-99.99,WeatherLink 5.7,2013-10-10 05:31:00,
2013-10-10 00:46:00,46.5,43.7,30.02,North,-999,0.0,0.0,90,0.00,,,-99.99,WeatherLink 5.7,2013-10-10 05:46:00,
2013-10-10 01:01:00,46.5,43.7,30.02,North,-999,0.0,0.0,90,0.00,,,-99.99,WeatherLink 5.7,2013-10-10 06:01:00,
2013-10-10 01:16:00,46.2,43.4,30.01,North,-999,0.0,0.0,90,0.00,,,-99.99,WeatherLink 5.7,2013-10-10 06:16:00,
2013-10-10 01:31:00,46.0,43.5,30.01,North,-999,0.0,0.0,91,0.00,,,-99.99,WeatherLink 5.7,2013-10-10 06:31:00,
2013-10-10 01:46:00,46.1,43.6,30.01,North,-999,0.0,0.0,91,0.00,,,-99.99,WeatherLink 5.7,2013-10-10 06:46:00,
2013-10-10 02:01:00,46.0,43.5,30.01,North,-999,0.0,0.0,91,0.00,,,-99.99,WeatherLink 5.7,2013-10-10 07:01:00,
2013-10-10 02:16:00,45.5,43.0,30.01,North,-999,0.0,0.0,91,0.00,,,-99.99,WeatherLink 5.7,2013-10-10 07:16:00,
2013-10-10 02:31:00,45.5,43.3,30.01,North,-999,0.0,0.0,92,0.00,,,-99.99,WeatherLink 5.7,2013-10-10 07:31:00,
2013-10-10 02:46:00,45.1,42.6,30.01,North,-999,0.0,0.0,91,0.00,,,-99.99,WeatherLink 5.7,2013-10-10 07:46:00,
2013-10-10 03:01:00,44.6,42.1,30.00,North,-999,0.0,0.0,91,0.00,,,-99.99,WeatherLink 5.7,2013-10-10 08:01:00,
2013-10-10 03:16:00,44.3,42.1,30.00,North,-999,0.0,0.0,92,0.00,,,-99.99,WeatherLink 5.7,2013-10-10 08:16:00,
2013-10-10 03:31:00,44.2,42.0,30.00,North,-999,0.0,0.0,92,0.00,,,-99.99,WeatherLink 5.7,2013-10-10 08:31:00,
2013-10-10 03:46:00,44.2,42.0,30.00,North,-999,0.0,0.0,92,0.00,,,-99.99,WeatherLink 5.7,2013-10-10 08:46:00,
2013-10-10 04:02:00,44.1,41.9,30.01,North,-999,0.0,0.0,92,0.00,,,-99.99,WeatherLink 5.7,2013-10-10 09:02:00,
2013-10-10 04:17:00,43.8,41.6,30.01,North,-999,0.0,0.0,92,0.00,,,-99.99,WeatherLink 5.7,2013-10-10 09:17:00,
2013-10-10 04:31:00,43.3,41.1,30.01,North,-999,0.0,0.0,92,0.00,,,-99.99,WeatherLink 5.7,2013-10-10 09:31:00,
2013-10-10 04:46:00,42.8,40.6,30.01,North,-999,0.0,0.0,92,0.00,,,-99.99,WeatherLink 5.7,2013-10-10 09:46:00,
2013-10-10 05:01:00,42.5,40.3,30.01,North,-999,0.0,0.0,92,0.00,,,-99.99,WeatherLink 5.7,2013-10-10 10:01:00,
2013-10-10 05:16:00,42.2,40.3,30.01,North,-999,0.0,0.0,93,0.00,,,-99.99,WeatherLink 5.7,2013-10-10 10:16:00,
2013-10-10 05:31:00,42.3,40.4,30.01,North,-999,0.0,0.0,93,0.00,,,-99.99,WeatherLink 5.7,2013-10-10 10:31:00,
2013-10-10 05:46:00,42.3,40.4,30.02,North,-999,0.0,0.0,93,0.00,,,-99.99,WeatherLink 5.7,2013-10-10 10:46:00,
2013-10-10 06:01:00,42.1,40.2,30.02,North,-999,0.0,0.0,93,0.00,,,-99.99,WeatherLink 5.7,2013-10-10 11:01:00,
2013-10-10 06:16:00,42.2,40.6,30.03,North,-999,0.0,0.0,94,0.00,,,-99.99,WeatherLink 5.7,2013-10-10 11:16:00,
2013-10-10 06:31:00,42.1,40.5,30.03,North,-999,0.0,0.0,94,0.00,,,-99.99,WeatherLink 5.7,2013-10-10 11:31:00,
2013-10-10 06:46:00,41.9,40.3,30.03,North,-999,0.0,0.0,94,0.00,,,-99.99,WeatherLink 5.7,2013-10-10 11:46:00,
2013-10-10 07:01:00,41.6,40.0,30.03,North,-999,0.0,0.0,94,0.00,,,-99.99,WeatherLink 5.7,2013-10-10 12:01:00,
2013-10-10 07:16:00,41.5,39.9,30.03,North,-999,0.0,0.0,94,0.00,,,-99.99,WeatherLink 5.7,2013-10-10 12:16:00,
2013-10-10 07:31:00,41.2,39.9,30.03,North,-999,0.0,0.0,95,0.00,,,-99.99,WeatherLink 5.7,2013-10-10 12:31:00,
2013-10-10 07:46:00,41.1,39.8,30.04,North,-999,0.0,0.0,95,0.00,,,-99.99,WeatherLink 5.7,2013-10-10 12:46:00,
2013-10-10 08:01:00,41.6,40.3,30.04,North,-999,0.0,0.0,95,0.00,,,-99.99,WeatherLink 5.7,2013-10-10 13:01:00,
2013-10-10 08:16:00,42.5,41.2,30.04,North,-999,0.0,0.0,95,0.00,,,-99.99,WeatherLink 5.7,2013-10-10 13:16:00,
2013-10-10 08:31:00,44.5,43.4,30.03,North,-999,0.0,0.0,96,0.00,,,-99.99,WeatherLink 5.7,2013-10-10 13:31:00,
2013-10-10 08:46:00,49.1,48.6,30.03,North,-999,0.0,0.0,98,0.00,,,-99.99,WeatherLink 5.7,2013-10-10 13:46:00,
2013-10-10 09:01:00,51.4,50.6,30.04,SSE,157,0.0,1.0,97,0.00,,,-99.99,WeatherLink 5.7,2013-10-10 14:01:00,
2013-10-10 09:16:00,53.5,52.7,30.04,SSE,157,0.0,1.0,97,0.00,,,-99.99,WeatherLink 5.7,2013-10-10 14:16:00,
2013-10-10 09:31:00,55.6,53.9,30.04,ESE,112,0.0,1.0,94,0.00,,,-99.99,WeatherLink 5.7,2013-10-10 14:31:00,
2013-10-10 09:46:00,57.2,54.3,30.04,ESE,112,0.0,1.0,90,0.00,,,-99.99,WeatherLink 5.7,2013-10-10 14:46:00,
2013-10-10 10:01:00,59.2,55.0,30.04,North,-999,0.0,0.0,86,0.00,,,-99.99,WeatherLink 5.7,2013-10-10 15:01:00,
2013-10-10 10:16:00,59.8,53.3,30.03,ESE,112,0.0,1.0,79,0.00,,,-99.99,WeatherLink 5.7,2013-10-10 15:16:00,
2013-10-10 10:31:00,62.3,52.8,30.03,East,90,0.0,3.0,71,0.00,,,-99.99,WeatherLink 5.7,2013-10-10 15:31:00,
2013-10-10 10:46:00,64.5,53.3,30.03,ESE,112,0.0,1.0,67,0.00,,,-99.99,WeatherLink 5.7,2013-10-10 15:46:00,
2013-10-10 11:01:00,66.0,53.0,30.03,East,90,0.0,1.0,63,0.00,,,-99.99,WeatherLink 5.7,2013-10-10 16:01:00,
2013-10-10 11:16:00,67.9,51.1,30.01,ESE,112,0.0,4.0,55,0.00,,,-99.99,WeatherLink 5.7,2013-10-10 16:16:00,
2013-10-10 11:31:00,68.6,53.2,30.01,ESE,112,0.0,1.0,58,0.00,,,-99.99,WeatherLink 5.7,2013-10-10 16:31:00,
2013-10-10 11:46:00,69.6,51.7,30.01,ESE,112,0.0,5.0,53,0.00,,,-99.99,WeatherLink 5.7,2013-10-10 16:46:00,
2013-10-10 12:01:00,69.4,50.5,30.00,SE,135,0.0,3.0,51,0.00,,,-99.99,WeatherLink 5.7,2013-10-10 17:01:00,
2013-10-10 12:16:00,70.3,50.2,30.00,SE,135,0.0,3.0,49,0.00,,,-99.99,WeatherLink 5.7,2013-10-10 17:16:00,
2013-10-10 12:31:00,71.1,50.4,29.99,ESE,112,0.0,5.0,48,0.00,,,-99.99,WeatherLink 5.7,2013-10-10 17:31:00,
2013-10-10 12:46:00,71.1,51.0,29.98,SE,135,0.0,4.0,49,0.00,,,-99.99,WeatherLink 5.7,2013-10-10 17:46:00,
2013-10-10 13:01:00,71.3,48.9,29.98,SE,135,0.0,5.0,45,0.00,,,-99.99,WeatherLink 5.7,2013-10-10 18:01:00,
2013-10-10 13:16:00,71.8,48.7,29.97,SE,135,1.0,6.0,44,0.00,,,-99.99,WeatherLink 5.7,2013-10-10 18:16:00,
2013-10-10 13:32:00,72.1,48.4,29.96,SE,135,1.0,6.0,43,0.00,,,-99.99,WeatherLink 5.7,2013-10-10 18:32:00,
2013-10-10 13:46:00,72.5,48.7,29.96,SSE,157,1.0,5.0,43,0.00,,,-99.99,WeatherLink 5.7,2013-10-10 18:46:00,
2013-10-10 14:01:00,71.6,50.3,29.96,SE,135,0.0,4.0,47,0.00,,,-99.99,WeatherLink 5.7,2013-10-10 19:01:00,
2013-10-10 14:16:00,71.6,49.1,29.95,SE,135,0.0,5.0,45,0.00,,,-99.99,WeatherLink 5.7,2013-10-10 19:16:00,
2013-10-10 14:31:00,72.3,50.4,29.95,SE,135,0.0,5.0,46,0.00,,,-99.99,WeatherLink 5.7,2013-10-10 19:31:00,
2013-10-10 14:46:00,72.3,50.9,29.95,ESE,112,0.0,5.0,47,0.00,,,-99.99,WeatherLink 5.7,2013-10-10 19:46:00,
2013-10-10 15:01:00,73.0,50.4,29.94,ESE,112,0.0,5.0,45,0.00,,,-99.99,WeatherLink 5.7,2013-10-10 20:01:00,
2013-10-10 15:16:00,72.3,49.2,29.94,SW,225,0.0,4.0,44,0.00,,,-99.99,WeatherLink 5.7,2013-10-10 20:16:00,
2013-10-10 15:31:00,73.0,50.4,29.93,SE,135,0.0,2.0,45,0.00,,,-99.99,WeatherLink 5.7,2013-10-10 20:31:00,
2013-10-10 15:46:00,73.0,50.4,29.93,ESE,112,0.0,5.0,45,0.00,,,-99.99,WeatherLink 5.7,2013-10-10 20:46:00,
2013-10-10 16:01:00,73.0,51.0,29.93,SE,135,0.0,4.0,46,0.00,,,-99.99,WeatherLink 5.7,2013-10-10 21:01:00,
2013-10-10 16:16:00,73.3,50.1,29.92,ESE,112,0.0,5.0,44,0.00,,,-99.99,WeatherLink 5.7,2013-10-10 21:16:00,
2013-10-10 16:31:00,73.5,49.6,29.92,SSW,202,0.0,1.0,43,0.00,,,-99.99,WeatherLink 5.7,2013-10-10 21:31:00,
2013-10-10 16:46:00,73.9,50.6,29.92,SE,135,0.0,2.0,44,0.00,,,-99.99,WeatherLink 5.7,2013-10-10 21:46:00,
2013-10-10 17:01:00,73.3,50.7,29.91,East,90,0.0,5.0,45,0.00,,,-99.99,WeatherLink 5.7,2013-10-10 22:01:00,
2013-10-10 17:16:00,73.7,52.2,29.91,North,-999,0.0,0.0,47,0.00,,,-99.99,WeatherLink 5.7,2013-10-10 22:16:00,
2013-10-10 17:31:00,72.7,54.6,29.91,SE,135,0.0,2.0,53,0.00,,,-99.99,WeatherLink 5.7,2013-10-10 22:31:00,
2013-10-10 17:46:00,73.5,55.3,29.92,North,-999,0.0,0.0,53,0.00,,,-99.99,WeatherLink 5.7,2013-10-10 22:46:00,
2013-10-10 18:01:00,72.7,54.1,29.92,North,-999,0.0,0.0,52,0.00,,,-99.99,WeatherLink 5.7,2013-10-10 23:01:00,
2013-10-10 18:16:00,69.9,53.5,29.92,North,-999,0.0,0.0,56,0.00,,,-99.99,WeatherLink 5.7,2013-10-10 23:16:00,
2013-10-10 18:31:00,67.1,52.3,29.92,North,-999,0.0,0.0,59,0.00,,,-99.99,WeatherLink 5.7,2013-10-10 23:31:00,
2013-10-10 18:46:00,65.2,52.3,29.92,North,-999,0.0,0.0,63,0.00,,,-99.99,WeatherLink 5.7,2013-10-10 23:46:00,
2013-10-10 19:01:00,63.4,52.2,29.92,North,-999,0.0,0.0,67,0.00,,,-99.99,WeatherLink 5.7,2013-10-11 00:01:00,
2013-10-10 19:16:00,61.2,51.7,29.93,North,-999,0.0,0.0,71,0.00,,,-99.99,WeatherLink 5.7,2013-10-11 00:16:00,
2013-10-10 19:31:00,59.9,51.6,29.92,North,-999,0.0,0.0,74,0.00,,,-99.99,WeatherLink 5.7,2013-10-11 00:31:00,
2013-10-10 19:46:00,58.7,51.5,29.92,North,-999,0.0,0.0,77,0.00,,,-99.99,WeatherLink 5.7,2013-10-11 00:46:00,
2013-10-10 20:01:00,57.6,51.8,29.93,North,-999,0.0,0.0,81,0.00,,,-99.99,WeatherLink 5.7,2013-10-11 01:01:00,
2013-10-10 20:16:00,57.0,51.6,29.92,North,-999,0.0,0.0,82,0.00,,,-99.99,WeatherLink 5.7,2013-10-11 01:16:00,
2013-10-10 20:31:00,56.3,50.9,29.92,North,-999,0.0,0.0,82,0.00,,,-99.99,WeatherLink 5.7,2013-10-11 01:31:00,
2013-10-10 20:46:00,55.4,50.3,29.92,North,-999,0.0,0.0,83,0.00,,,-99.99,WeatherLink 5.7,2013-10-11 01:46:00,
2013-10-10 21:01:00,54.8,50.4,29.92,North,-999,0.0,0.0,85,0.00,,,-99.99,WeatherLink 5.7,2013-10-11 02:01:00,
2013-10-10 21:16:00,54.2,50.1,29.92,North,-999,0.0,0.0,86,0.00,,,-99.99,WeatherLink 5.7,2013-10-11 02:16:00,
2013-10-10 21:31:00,53.8,50.0,29.92,North,-999,0.0,0.0,87,0.00,,,-99.99,WeatherLink 5.7,2013-10-11 02:31:00,
2013-10-10 21:46:00,53.6,50.1,29.92,North,-999,0.0,0.0,88,0.00,,,-99.99,WeatherLink 5.7,2013-10-11 02:46:00,
2013-10-10 22:01:00,53.2,50.0,29.92,North,-999,0.0,0.0,89,0.00,,,-99.99,WeatherLink 5.7,2013-10-11 03:01:00,
2013-10-10 22:16:00,53.2,50.3,29.92,East,90,0.0,1.0,90,0.00,,,-99.99,WeatherLink 5.7,2013-10-11 03:16:00,
2013-10-10 22:33:00,53.1,50.2,29.92,SE,135,0.0,1.0,90,0.00,,,-99.99,WeatherLink 5.7,2013-10-11 03:33:00,
2013-10-10 22:47:00,52.8,49.9,29.92,North,-999,0.0,0.0,90,0.00,,,-99.99,WeatherLink 5.7,2013-10-11 03:47:00,
2013-10-10 23:02:00,52.6,49.8,29.91,North,-999,0.0,0.0,90,0.00,,,-99.99,WeatherLink 5.7,2013-10-11 04:02:00,
2013-10-10 23:16:00,52.3,49.5,29.91,North,-999,0.0,0.0,90,0.00,,,-99.99,WeatherLink 5.7,2013-10-11 04:16:00,
2013-10-10 23:31:00,51.9,49.1,29.90,North,-999,0.0,0.0,90,0.00,,,-99.99,WeatherLink 5.7,2013-10-11 04:31:00,
2013-10-10 23:46:00,51.6,48.8,29.90,North,-999,0.0,0.0,90,0.00,,,-99.99,WeatherLink 5.7,2013-10-11 04:46:00,